TimeEDT,TemperatureF,Dew PointF,Humidity,Sea Level PressureIn,VisibilityMPH,Wind Direction,Wind SpeedMPH,Gust SpeedMPH,PrecipitationIn,Events,Conditions,WindDirDegrees,DateUTC
12:26 AM,48.2,46.4,93,30.01,6.0,NNE,15.0,21.9,0.00,,Overcast,30,2012-09-30 04:26:00
12:34 AM,48.2,46.4,93,30.01,5.0,NE,16.1,23.0,0.00,,Overcast,40,2012-09-30 04:34:00
12:53 AM,48.9,48.0,97,30.02,4.0,NE,12.7,23.0,0.00,Rain,Light Rain,40,2012-09-30 04:53:00
1:09 AM,48.2,48.2,100,30.02,4.0,NE,11.5,19.6,0.01,Rain,Light Rain,40,2012-09-30 05:09:00
1:53 AM,48.9,48.0,97,30.03,3.0,NNE,10.4,17.3,0.02,Rain,Light Rain,30,2012-09-30 05:53:00
2:42 AM,48.2,48.2,100,30.01,5.0,NNE,12.7,21.9,0.02,Rain,Light Rain,30,2012-09-30 06:42:00
2:53 AM,50.0,48.0,93,30.01,6.0,NE,12.7,18.4,0.02,,Overcast,40,2012-09-30 06:53:00
3:00 AM,50.0,48.2,94,30.00,6.0,NE,11.5,19.6,0.00,Rain,Light Rain,40,2012-09-30 07:00:00
3:10 AM,50.0,48.2,94,30.00,5.0,NE,11.5,18.4,0.00,Rain,Light Rain,50,2012-09-30 07:10:00
3:53 AM,50.0,48.0,93,30.00,10.0,NE,13.8,24.2,0.02,Rain,Light Rain,40,2012-09-30 07:53:00
4:53 AM,50.0,48.9,96,30.00,10.0,NE,12.7,21.9,0.00,,Overcast,40,2012-09-30 08:53:00
5:53 AM,51.1,48.9,92,30.01,7.0,NE,9.2,20.7,0.00,,Overcast,50,2012-09-30 09:53:00
6:14 AM,51.8,50.0,94,29.99,8.0,NE,10.4,19.6,N/A,,Overcast,40,2012-09-30 10:14:00
6:53 AM,51.1,50.0,96,30.00,4.0,NE,11.5,20.7,0.00,,Overcast,40,2012-09-30 10:53:00
7:27 AM,51.8,50.0,94,29.99,5.0,NE,9.2,21.9,N/A,,Overcast,50,2012-09-30 11:27:00
7:53 AM,51.1,50.0,96,29.99,5.0,NE,11.5,20.7,0.00,,Overcast,40,2012-09-30 11:53:00
8:13 AM,51.8,50.0,94,29.96,1.8,NE,12.7,19.6,0.01,Rain,Light Rain,40,2012-09-30 12:13:00
8:24 AM,51.8,50.0,94,29.98,2.0,NE,9.2,19.6,0.01,Rain,Light Rain,50,2012-09-30 12:24:00
8:34 AM,51.8,50.0,94,29.99,4.0,ENE,11.5,19.6,0.01,,Overcast,60,2012-09-30 12:34:00
8:53 AM,52.0,50.0,93,30.00,10.0,NE,11.5,18.4,0.01,,Overcast,50,2012-09-30 12:53:00
9:53 AM,53.6,51.8,94,29.98,10.0,NE,11.5,17.3,N/A,,Overcast,50,2012-09-30 13:53:00
10:25 AM,53.6,51.8,94,29.98,2.5,NE,9.2,17.3,N/A,,Overcast,50,2012-09-30 14:25:00
10:37 AM,53.6,51.8,94,29.97,4.0,NE,10.4,-,N/A,,Overcast,50,2012-09-30 14:37:00
10:53 AM,53.1,52.0,96,29.98,9.0,NE,8.1,18.4,N/A,,Overcast,50,2012-09-30 14:53:00
11:53 AM,54.0,53.1,97,29.95,10.0,NE,12.7,17.3,0.01,,Overcast,50,2012-09-30 15:53:00
12:53 PM,55.0,54.0,96,29.92,10.0,NE,13.8,19.6,N/A,,Overcast,50,2012-09-30 16:53:00
1:53 PM,55.9,54.0,93,29.88,10.0,NNE,8.1,-,N/A,,Overcast,30,2012-09-30 17:53:00
2:53 PM,57.0,55.0,93,29.84,10.0,NE,12.7,21.9,0.00,,Overcast,50,2012-09-30 18:53:00
3:53 PM,57.0,55.0,93,29.81,10.0,NE,15.0,-,0.00,,Overcast,50,2012-09-30 19:53:00
4:53 PM,57.0,55.0,93,29.77,9.0,NE,18.4,25.3,0.03,Rain,Light Rain,50,2012-09-30 20:53:00
5:43 PM,57.2,55.4,94,29.74,6.0,NE,16.1,28.8,0.07,Rain,Rain,50,2012-09-30 21:43:00
5:53 PM,57.0,55.0,93,29.73,8.0,NE,16.1,27.6,0.08,Rain,Light Rain,50,2012-09-30 21:53:00
6:25 PM,57.2,55.4,94,29.71,10.0,NE,17.3,26.5,0.01,Rain,Light Rain,50,2012-09-30 22:25:00
6:53 PM,57.0,55.9,96,29.70,10.0,NE,19.6,28.8,0.02,Rain,Light Rain,50,2012-09-30 22:53:00
7:28 PM,57.2,55.4,94,29.66,8.0,NE,17.3,33.4,0.05,Rain,Rain,40,2012-09-30 23:28:00
7:53 PM,57.9,55.9,93,29.64,8.0,NE,21.9,31.1,0.08,Rain,Light Rain,50,2012-09-30 23:53:00
8:04 PM,57.2,55.4,94,29.63,5.0,NE,20.7,33.4,0.03,Rain,Rain,50,2012-10-01 00:04:00
8:53 PM,57.0,55.9,96,29.60,4.0,ENE,23.0,33.4,0.13,Rain,Rain,60,2012-10-01 00:53:00
9:53 PM,57.0,55.9,96,29.55,3.0,ENE,18.4,29.9,0.11,Rain,Rain,60,2012-10-01 01:53:00
10:18 PM,57.2,55.4,94,29.54,6.0,ENE,19.6,29.9,0.02,Rain,Light Rain,60,2012-10-01 02:18:00
10:40 PM,57.2,55.4,94,29.54,4.0,ENE,15.0,28.8,0.03,Rain,Light Rain,60,2012-10-01 02:40:00
10:53 PM,57.0,55.9,96,29.55,4.0,ENE,16.1,24.2,0.03,Rain,Light Rain,70,2012-10-01 02:53:00
11:01 PM,57.2,55.4,94,29.54,6.0,ENE,16.1,25.3,0.00,Rain,Light Rain,70,2012-10-01 03:01:00
11:16 PM,57.2,55.4,94,29.54,8.0,East,15.0,24.2,0.01,Rain,Light Rain,80,2012-10-01 03:16:00
11:24 PM,57.2,55.4,94,29.55,7.0,SE,9.2,23.0,0.01,Rain,Light Rain,140,2012-10-01 03:24:00
11:29 PM,57.2,55.4,94,29.55,2.0,South,4.6,23.0,0.01,Rain,Light Rain,190,2012-10-01 03:29:00
11:32 PM,57.2,55.4,94,29.55,1.8,SSE,4.6,-,0.01,Rain,Light Rain,160,2012-10-01 03:32:00
11:36 PM,57.2,55.4,94,29.55,1.5,SE,6.9,-,0.01,Rain,Light Rain,130,2012-10-01 03:36:00
11:38 PM,57.2,55.4,94,29.55,2.0,SE,4.6,-,0.01,Rain,Light Rain,130,2012-10-01 03:38:00
11:53 PM,57.0,55.9,96,29.54,8.0,Variable,4.6,-,0.01,,Overcast,0,2012-10-01 03:53:00